| time (UTC) | temp F | wind direction | speed MPH | gust MPH | rain 1hr in | rain 24hr in | rain mn in | humidity % | barometer mb |
| 20260906092931 | 62 | 33 | 3.0 | 6.0 | 0.00 | 0.00 | 0.00 | 97 | 1012.4 |
| 20260906091417 | 62 | 25 | 4.0 | 9.0 | 0.00 | 0.00 | 0.00 | 97 | 1012.3 |
| 20260906085428 | 62 | 11 | 3.0 | 5.0 | 0.00 | 0.00 | 0.00 | 97 | 1012.5 |
| 20260906083916 | 62 | 39 | 2.0 | 3.0 | 0.00 | 0.00 | 0.00 | 96 | 1012.5 |
| 20260906081421 | 62 | 39 | 2.0 | 5.0 | 0.00 | 0.00 | 0.00 | 97 | 1012.5 |
| 20260906075424 | 62 | 259 | 2.0 | 5.0 | 0.00 | 0.00 | 0.00 | 97 | 1012.4 |
| 20260906073426 | 63 | 33 | 2.0 | 6.0 | 0.00 | 0.00 | 0.00 | 97 | 1012.3 |
| 20260906071417 | 62 | 60 | 3.0 | 5.0 | 0.00 | 0.00 | 0.00 | 96 | 1012.3 |
| 20260906065431 | 62 | 49 | 2.0 | 4.0 | 0.00 | 0.00 | 0.00 | 96 | 1012.5 |
| 20260906063924 | 60 | 62 | 2.0 | 3.0 | 0.00 | 0.00 | 0.00 | 95 | 1012.6 |
| 20260906062425 | 61 | 19 | 0.0 | 0.0 | 0.00 | 0.00 | 0.00 | 95 | 1012.7 |
| 20260906060919 | 61 | 19 | 0.0 | 0.0 | 0.00 | 0.00 | 0.00 | 95 | 1012.6 |
| 20260906054935 | 61 | 18 | 1.0 | 3.0 | 0.00 | 0.00 | 0.00 | 95 | 1012.6 |
| 20260906052923 | 62 | 260 | 1.0 | 3.0 | 0.00 | 0.00 | 0.00 | 95 | 1012.7 |
| 20260906050434 | 64 | 19 | 0.0 | 0.0 | 0.00 | 0.00 | 0.00 | 95 | 1012.7 |
| 20260906044424 | 64 | 19 | 0.0 | 0.0 | 0.00 | 0.00 | 0.00 | 94 | 1012.7 |
| 20260906042918 | 64 | 19 | 0.0 | 1.0 | 0.00 | 0.00 | 0.00 | 94 | 1012.5 |
| 20260906040931 | 64 | 22 | 1.0 | 3.0 | 0.00 | 0.00 | 0.00 | 94 | 1012.3 |
| 20260906034931 | 64 | 29 | 2.0 | 3.0 | 0.00 | 0.00 | 0.00 | 92 | 1012.2 |
| 20260906032935 | 65 | 28 | 1.0 | 2.0 | 0.00 | 0.00 | 0.00 | 91 | 1012.1 |
| 20260906031421 | 66 | 30 | 2.0 | 3.0 | 0.00 | 0.00 | 0.00 | 90 | 1011.9 |
| 20260906025425 | 67 | 38 | 1.0 | 4.0 | 0.00 | 0.00 | 0.00 | 90 | 1011.7 |
| 20260906023426 | 69 | 42 | 1.0 | 4.0 | 0.00 | 0.00 | 0.00 | 88 | 1011.3 |
| 20260906021435 | 71 | 31 | 4.0 | 9.0 | 0.00 | 0.00 | 0.00 | 86 | 1011.1 |
| 20260906015434 | 72 | 12 | 6.0 | 10.0 | 0.00 | 0.00 | 0.00 | 84 | 1011.0 |
| 20260906013419 | 74 | 5 | 5.0 | 10.0 | 0.00 | 0.00 | 0.00 | 81 | 1010.8 |
| 20260906011421 | 75 | 15 | 8.0 | 13.0 | 0.00 | 0.00 | 0.00 | 78 | 1010.6 |
| 20260906005424 | 78 | 11 | 9.0 | 14.0 | 0.00 | 0.00 | 0.00 | 74 | 1010.3 |
| 20260906003427 | 80 | 12 | 7.0 | 17.0 | 0.00 | 0.00 | 0.00 | 72 | 1010.1 |
| 20260906001427 | 81 | 5 | 9.0 | 13.0 | 0.00 | 0.00 | 0.00 | 65 | 1009.8 |
| 20260905235441 | 85 | 295 | 9.0 | 15.0 | 0.00 | 0.00 | 0.00 | 58 | 1009.5 |
| 20260905232933 | 86 | 311 | 3.0 | 8.0 | 0.00 | 0.00 | 0.00 | 55 | 1009.3 |
| 20260905230947 | 86 | 10 | 2.0 | 6.0 | 0.00 | 0.00 | 0.00 | 54 | 1009.0 |
| 20260905225432 | 86 | 250 | 2.0 | 8.0 | 0.00 | 0.00 | 0.00 | 53 | 1009.0 |
| 20260905223921 | 85 | 222 | 4.0 | 8.0 | 0.00 | 0.00 | 0.00 | 55 | 1009.0 |
| 20260905221929 | 86 | 115 | 0.0 | 4.0 | 0.00 | 0.00 | 0.00 | 57 | 1008.9 |
| 20260905220423 | 84 | 236 | 3.0 | 7.0 | 0.00 | 0.00 | 0.00 | 58 | 1009.0 |
| 20260905214918 | 85 | 209 | 3.0 | 7.0 | 0.00 | 0.00 | 0.00 | 57 | 1009.0 |
| 20260905212934 | 86 | 107 | 2.0 | 5.0 | 0.00 | 0.00 | 0.00 | 54 | 1009.1 |
| 20260905211408 | 85 | 99 | 1.0 | 8.0 | 0.00 | 0.00 | 0.00 | 55 | 1009.1 |
| 20260905205430 | 85 | 209 | 4.0 | 8.0 | 0.00 | 0.00 | 0.00 | 55 | 1009.2 |
| 20260905203435 | 84 | 207 | 3.0 | 7.0 | 0.00 | 0.00 | 0.00 | 57 | 1009.3 |
| 20260905201433 | 83 | 182 | 3.0 | 7.0 | 0.00 | 0.00 | 0.00 | 59 | 1009.4 |
| 20260905195424 | 83 | 152 | 3.0 | 9.0 | 0.00 | 0.00 | 0.00 | 61 | 1009.6 |
| 20260905193431 | 81 | 214 | 1.0 | 10.0 | 0.00 | 0.00 | 0.00 | 62 | 1009.7 |
| 20260905191439 | 81 | 217 | 3.0 | 10.0 | 0.00 | 0.00 | 0.00 | 65 | 1009.8 |
| 20260905185932 | 80 | 216 | 4.0 | 11.0 | 0.00 | 0.00 | 0.00 | 66 | 1010.0 |
| 20260905183933 | 80 | 241 | 5.0 | 11.0 | 0.00 | 0.00 | 0.00 | 66 | 1010.2 |
| 20260905182429 | 79 | 194 | 7.0 | 12.0 | 0.00 | 0.00 | 0.00 | 68 | 1010.4 |
| 20260905180926 | 79 | 199 | 5.0 | 13.0 | 0.00 | 0.00 | 0.00 | 67 | 1010.4 |
| 20260905175425 | 78 | 137 | 3.0 | 10.0 | 0.00 | 0.00 | 0.00 | 67 | 1010.5 |
| 20260905172922 | 77 | 167 | 4.0 | 10.0 | 0.00 | 0.00 | 0.00 | 68 | 1010.4 |
| 20260905171412 | 76 | 182 | 6.0 | 9.0 | 0.00 | 0.00 | 0.00 | 69 | 1010.3 |
| 20260905165432 | 75 | 114 | 4.0 | 8.0 | 0.00 | 0.00 | 0.00 | 70 | 1010.3 |
| 20260905163908 | 75 | 109 | 3.0 | 10.0 | 0.00 | 0.00 | 0.00 | 70 | 1010.3 |
| 20260905161922 | 74 | 90 | 4.0 | 8.0 | 0.00 | 0.00 | 0.00 | 73 | 1010.4 |
| 20260905160415 | 74 | 103 | 2.0 | 9.0 | 0.00 | 0.00 | 0.00 | 74 | 1010.4 |
| 20260905154914 | 72 | 139 | 2.0 | 9.0 | 0.00 | 0.00 | 0.00 | 81 | 1010.5 |
| 20260905152929 | 68 | 67 | 1.0 | 4.0 | 0.00 | 0.00 | 0.00 | 96 | 1010.4 |
| 20260905150925 | 65 | 123 | 3.0 | 6.0 | 0.00 | 0.00 | 0.00 | 98 | 1010.3 |
| 20260905144927 | 63 | 86 | 2.0 | 6.0 | 0.00 | 0.00 | 0.00 | 98 | 1010.5 |
| 20260905143423 | 62 | 83 | 3.0 | 6.0 | 0.00 | 0.00 | 0.00 | 98 | 1010.5 |
| 20260905141435 | 60 | 59 | 0.0 | 0.0 | 0.00 | 0.00 | 0.00 | 98 | 1010.7 |
| 20260905135428 | 59 | 65 | 0.0 | 0.0 | 0.00 | 0.00 | 0.00 | 97 | 1010.7 |
| 20260905133419 | 59 | 66 | 0.0 | 2.0 | 0.00 | 0.00 | 0.00 | 97 | 1010.2 |
| 20260905130437 | 59 | 37 | 0.0 | 2.0 | 0.00 | 0.00 | 0.00 | 97 | 1010.3 |
| 20260905124927 | 59 | 37 | 0.0 | 1.0 | 0.00 | 0.00 | 0.00 | 97 | 1010.6 |
| 20260905123421 | 59 | 37 | 1.0 | 3.0 | 0.00 | 0.00 | 0.00 | 97 | 1010.3 |
| 20260905121433 | 58 | 32 | 0.0 | 2.0 | 0.00 | 0.00 | 0.00 | 97 | 1010.0 |
| 20260905115932 | 58 | 38 | 0.0 | 1.0 | 0.00 | 0.00 | 0.00 | 97 | 1010.0 |
| 20260905113932 | 58 | 47 | 0.0 | 1.0 | 0.00 | 0.00 | 0.00 | 97 | 1009.8 |
| 20260905111924 | 58 | 57 | 2.0 | 4.0 | 0.00 | 0.00 | 0.00 | 97 | 1009.4 |
| 20260905105926 | 57 | 49 | 2.0 | 5.0 | 0.00 | 0.00 | 0.00 | 97 | 1009.4 |
| 20260905103925 | 56 | 36 | 3.0 | 5.0 | 0.00 | 0.00 | 0.00 | 96 | 1008.8 |
| 20260905101923 | 56 | 56 | 2.0 | 4.0 | 0.00 | 0.00 | 0.00 | 96 | 1008.7 |
| 20260905100418 | 56 | 51 | 3.0 | 5.0 | 0.00 | 0.00 | 0.00 | 96 | 1008.6 |
| 20260905094910 | 56 | 57 | 3.0 | 6.0 | 0.00 | 0.00 | 0.00 | 96 | 1008.7 |